COSMOS 1275 DEB, 42191

Orbit data source: Space-Track

COSMOS 1275 DEB, 42191 is space debris in LEO originally from a launch on Thu, 04 Jun 1981 UTC launched from the Plesetsk Missile And Space Complex (PKMTR). Debris objects in space refer to the collection of defunct objects orbiting the Earth. Examples of debris include non-operational satellites, rocket bodies, and fragments generated from explosions, collisions, or faulty payload assembly.

Loading next visibility...
Identifier
42191, 1981-053TF
Orbit
LEO
Country
Flag of CISCIS
Related business
Manufacturer
Unknown
Mission
Spacecraft
Bus & Motor
Unknown
Mass
Unknown
Launch date (UTC)
1981-06-04 (45 years ago)
Launch vehicle
Unknown
Launch site
Plesetsk Missile And Space Complex (PKMTR)
Object type
Payload
Rocket body
Debris
Shape & HBR
Unknown shape, 0.1 m
Radar Cross Section
Small (<0.1 m²)

Expand to show TLE details & history
Last TLE update: 3 days ago

TLE from 3 days ago
0 COSMOS 1275 DEB
1 42191U 81053TF  26170.60041939  .00001619  00000-0  89428-3 0  9993
2 42191  82.8207 124.2971 0036515 320.3733  39.4774 14.10582314643515
Epoch: 2026-06-19T14:24Z
TLE epoch observation values (Epoch: 2026-06-19T14:24:36.235Z)
Latitude
-0.00006°
Longitude
0.31905°
Altitude
839.968 km
Speed
7.443 km/s
True Right ascension
08h 17m 11s
True Declination
0° 00' 00"
Sunlit
Object was in daylight at epoch
Visualization orbit readout
Latitude
Unknown
Longitude
Unknown
Altitude
Unknown
Speed
Unknown
Apparent Right ascension
Unknown
Apparent Declination
Unknown
Sunlit
N/A
Visualization observer readout
Local Sidereal Time
21:40:10
Azimuth
Unknown
Elevation
Unknown
Doppler factor
Unknown
Orbital elements
Apogee altitude
880.894 km
Perigee altitude
828.074 km
Semi-major axis
7,232.621 km
Eccentricity
0.00365
Inclination
82.8207°
RAAN
124.2971°
Arg. of periapsis
320.3733°
True anomaly
39.74437°
Mean anomaly
39.4774°
Eccentric anomaly
39.61079°
Mean motion
3.52858 °/min
Orbital period
102.02 mins
BSTAR
0.00089428
Loading maneuver chart data...
Computing Atmospheric mass density...

Documentation

Showing up to 5 results
|